Wetterdaten: Montag, 23.11.2015
Datum Zeit Temp. A. Feuchte A. Luftdruck Regen Wind Richtung Richtung Sonnenschein ET UV Solar Taupunkt Windchill Windben Empfang
23.11.2015 00:00 -0,2 C 88 % 1014,4 hPa 0,0 l/m 5,3 km/h (1 Bft) SW 229 0 min 0,000 mm 0,0 UV-I 0 W/m -1,9 C -0,2 C 8,0 km/h (2 Bft) 99,17 %
23.11.2015 00:05 -0,3 C 89 % 1014,4 hPa 0,0 l/m 5,1 km/h (1 Bft) S-SW 204 0 min 0,000 mm 0,0 UV-I 0 W/m -1,9 C -0,3 C 9,7 km/h (2 Bft) 99,09 %
23.11.2015 00:10 -0,1 C 88 % 1014,4 hPa 0,0 l/m 5,3 km/h (1 Bft) S-SW 201 0 min 0,000 mm 0,0 UV-I 0 W/m -1,8 C -0,1 C 8,0 km/h (2 Bft) 99,19 %
23.11.2015 00:15 -0,1 C 88 % 1014,3 hPa 0,0 l/m 5,2 km/h (1 Bft) SW 214 0 min 0,000 mm 0,0 UV-I 0 W/m -1,8 C -0,1 C 8,0 km/h (2 Bft) 100,00 %
23.11.2015 00:20 -0,3 C 88 % 1014,3 hPa 0,0 l/m 7,0 km/h (2 Bft) SW 221 0 min 0,000 mm 0,0 UV-I 0 W/m -2,0 C -0,9 C 9,7 km/h (2 Bft) 100,00 %
23.11.2015 00:25 -0,3 C 89 % 1014,3 hPa 0,0 l/m 5,7 km/h (1 Bft) SW 225 0 min 0,000 mm 0,0 UV-I 0 W/m -1,9 C -0,3 C 9,7 km/h (2 Bft) 97,67 %
23.11.2015 00:30 -0,3 C 89 % 1014,3 hPa 0,0 l/m 6,7 km/h (2 Bft) SW 223 0 min 0,000 mm 0,0 UV-I 0 W/m -1,9 C -0,6 C 11,3 km/h (2 Bft) 99,15 %
23.11.2015 00:35 -0,2 C 88 % 1014,4 hPa 0,0 l/m 8,4 km/h (2 Bft) SW 230 0 min 0,000 mm 0,0 UV-I 0 W/m -1,9 C -2,2 C 12,9 km/h (3 Bft) 97,37 %
23.11.2015 00:40 0,1 C 87 % 1014,4 hPa 0,0 l/m 7,3 km/h (2 Bft) SW 236 0 min 0,000 mm 0,0 UV-I 0 W/m -1,8 C -0,8 C 14,5 km/h (3 Bft) 97,17 %
23.11.2015 00:45 0,2 C 86 % 1014,5 hPa 0,0 l/m 5,7 km/h (1 Bft) SW 229 0 min 0,000 mm 0,0 UV-I 0 W/m -1,9 C 0,2 C 9,7 km/h (2 Bft) 97,52 %
23.11.2015 00:50 0,2 C 86 % 1014,5 hPa 0,0 l/m 5,9 km/h (2 Bft) S-SW 213 0 min 0,000 mm 0,0 UV-I 0 W/m -1,9 C 0,2 C 11,3 km/h (2 Bft) 97,09 %
23.11.2015 00:55 0,2 C 86 % 1014,6 hPa 0,0 l/m 5,9 km/h (2 Bft) SW 220 0 min 0,000 mm 0,0 UV-I 0 W/m -1,9 C 0,2 C 9,7 km/h (2 Bft) 96,30 %
23.11.2015 01:00 0,2 C 86 % 1014,5 hPa 0,0 l/m 5,2 km/h (1 Bft) S-SW 198 0 min 0,000 mm 0,0 UV-I 0 W/m -1,9 C 0,2 C 9,7 km/h (2 Bft) 97,50 %
23.11.2015 01:05 0,1 C 85 % 1014,5 hPa 0,0 l/m 7,9 km/h (2 Bft) S-SW 202 0 min 0,000 mm 0,0 UV-I 0 W/m -2,1 C -1,4 C 14,5 km/h (3 Bft) 95,65 %
23.11.2015 01:10 0,2 C 85 % 1014,5 hPa 0,0 l/m 9,8 km/h (2 Bft) SW 227 0 min 0,000 mm 0,0 UV-I 0 W/m -2,0 C -3,1 C 19,3 km/h (3 Bft) 96,43 %
23.11.2015 01:15 0,2 C 84 % 1014,6 hPa 0,0 l/m 7,8 km/h (2 Bft) SW 215 0 min 0,000 mm 0,0 UV-I 0 W/m -2,2 C -1,2 C 12,9 km/h (3 Bft) 97,50 %
23.11.2015 01:20 0,2 C 84 % 1014,6 hPa 0,0 l/m 6,2 km/h (2 Bft) S-SW 204 0 min 0,000 mm 0,0 UV-I 0 W/m -2,2 C 0,2 C 9,7 km/h (2 Bft) 100,00 %
23.11.2015 01:25 0,2 C 84 % 1014,7 hPa 0,0 l/m 6,0 km/h (2 Bft) SW 225 0 min 0,000 mm 0,0 UV-I 0 W/m -2,2 C 0,2 C 11,3 km/h (2 Bft) 98,43 %
23.11.2015 01:30 0,2 C 85 % 1014,8 hPa 0,0 l/m 6,6 km/h (2 Bft) SW 231 0 min 0,000 mm 0,0 UV-I 0 W/m -2,0 C 0,0 C 11,3 km/h (2 Bft) 100,00 %
23.11.2015 01:35 -0,1 C 86 % 1014,8 hPa 0,0 l/m 5,8 km/h (2 Bft) SW 221 0 min 0,000 mm 0,0 UV-I 0 W/m -2,2 C -0,1 C 8,0 km/h (2 Bft) 98,21 %
23.11.2015 01:40 -0,2 C 86 % 1014,9 hPa 0,0 l/m 7,1 km/h (2 Bft) W-SW 244 0 min 0,000 mm 0,0 UV-I 0 W/m -2,3 C -0,9 C 9,7 km/h (2 Bft) 99,17 %
23.11.2015 01:45 -0,3 C 87 % 1014,9 hPa 0,0 l/m 7,5 km/h (2 Bft) W-SW 242 0 min 0,000 mm 0,0 UV-I 0 W/m -2,2 C -1,5 C 9,7 km/h (2 Bft) 99,08 %
23.11.2015 01:50 -0,4 C 87 % 1015,0 hPa 0,0 l/m 7,3 km/h (2 Bft) SW 229 0 min 0,000 mm 0,0 UV-I 0 W/m -2,3 C -1,3 C 11,3 km/h (2 Bft) 99,08 %
23.11.2015 01:55 -0,3 C 86 % 1015,0 hPa 0,0 l/m 7,0 km/h (2 Bft) SW 215 0 min 0,000 mm 0,0 UV-I 0 W/m -2,3 C -0,9 C 12,9 km/h (3 Bft) 99,19 %
23.11.2015 02:00 -0,2 C 85 % 1015,0 hPa 0,0 l/m 8,2 km/h (2 Bft) S-SW 202 0 min 0,000 mm 0,0 UV-I 0 W/m -2,4 C -2,1 C 16,1 km/h (3 Bft) 99,21 %
23.11.2015 02:05 -0,1 C 84 % 1015,0 hPa 0,0 l/m 9,9 km/h (2 Bft) S-SW 209 0 min 0,000 mm 0,0 UV-I 0 W/m -2,5 C -3,5 C 17,7 km/h (3 Bft) 99,15 %
23.11.2015 02:10 0,1 C 83 % 1015,1 hPa 0,0 l/m 10,6 km/h (2 Bft) S-SW 198 0 min 0,000 mm 0,0 UV-I 0 W/m -2,4 C -3,8 C 16,1 km/h (3 Bft) 100,00 %
23.11.2015 02:15 0,2 C 82 % 1015,1 hPa 0,0 l/m 8,3 km/h (2 Bft) S 190 0 min 0,000 mm 0,0 UV-I 0 W/m -2,5 C -1,7 C 12,9 km/h (3 Bft) 97,39 %
23.11.2015 02:20 0,3 C 82 % 1015,1 hPa 0,0 l/m 7,6 km/h (2 Bft) SW 227 0 min 0,000 mm 0,0 UV-I 0 W/m -2,4 C -0,9 C 14,5 km/h (3 Bft) 97,46 %
23.11.2015 02:25 0,2 C 82 % 1015,2 hPa 0,0 l/m 7,5 km/h (2 Bft) S-SW 194 0 min 0,000 mm 0,0 UV-I 0 W/m -2,5 C -0,9 C 14,5 km/h (3 Bft) 100,00 %
23.11.2015 02:30 0,2 C 81 % 1015,2 hPa 0,0 l/m 7,2 km/h (2 Bft) S-SO 159 0 min 0,000 mm 0,0 UV-I 0 W/m -2,7 C -0,6 C 11,3 km/h (2 Bft) 99,13 %
23.11.2015 02:35 0,0 C 82 % 1015,2 hPa 0,0 l/m 7,6 km/h (2 Bft) S 180 0 min 0,000 mm 0,0 UV-I 0 W/m -2,7 C -1,2 C 12,9 km/h (3 Bft) 99,19 %
23.11.2015 02:40 -0,1 C 83 % 1015,2 hPa 0,0 l/m 7,5 km/h (2 Bft) S-SW 197 0 min 0,000 mm 0,0 UV-I 0 W/m -2,6 C -1,2 C 12,9 km/h (3 Bft) 99,13 %
23.11.2015 02:45 -0,2 C 83 % 1015,3 hPa 0,0 l/m 10,0 km/h (2 Bft) S 187 0 min 0,000 mm 0,0 UV-I 0 W/m -2,7 C -3,7 C 14,5 km/h (3 Bft) 98,37 %
23.11.2015 02:50 -0,1 C 83 % 1015,4 hPa 0,0 l/m 8,5 km/h (2 Bft) S-SW 192 0 min 0,000 mm 0,0 UV-I 0 W/m -2,6 C -2,2 C 14,5 km/h (3 Bft) 98,11 %
23.11.2015 02:55 -0,1 C 83 % 1015,5 hPa 0,0 l/m 9,1 km/h (2 Bft) S-SW 200 0 min 0,000 mm 0,0 UV-I 0 W/m -2,6 C -2,8 C 12,9 km/h (3 Bft) 97,46 %
23.11.2015 03:00 -0,1 C 83 % 1015,5 hPa 0,0 l/m 7,4 km/h (2 Bft) SW 228 0 min 0,000 mm 0,0 UV-I 0 W/m -2,6 C -1,1 C 12,9 km/h (3 Bft) 97,46 %
23.11.2015 03:05 0,0 C 83 % 1015,5 hPa 0,0 l/m 6,3 km/h (2 Bft) S-SW 200 0 min 0,000 mm 0,0 UV-I 0 W/m -2,5 C 0,0 C 11,3 km/h (2 Bft) 95,93 %
23.11.2015 03:10 -0,1 C 84 % 1015,5 hPa 0,0 l/m 7,2 km/h (2 Bft) S 186 0 min 0,000 mm 0,0 UV-I 0 W/m -2,5 C -0,9 C 11,3 km/h (2 Bft) 96,69 %
23.11.2015 03:15 -0,2 C 85 % 1015,6 hPa 0,0 l/m 6,8 km/h (2 Bft) S-SW 207 0 min 0,000 mm 0,0 UV-I 0 W/m -2,4 C -0,6 C 11,3 km/h (2 Bft) 98,06 %
23.11.2015 03:20 -0,1 C 84 % 1015,6 hPa 0,0 l/m 7,9 km/h (2 Bft) S 171 0 min 0,000 mm 0,0 UV-I 0 W/m -2,5 C -1,7 C 11,3 km/h (2 Bft) 95,93 %
23.11.2015 03:25 -0,2 C 85 % 1015,6 hPa 0,0 l/m 6,6 km/h (2 Bft) S-SW 202 0 min 0,000 mm 0,0 UV-I 0 W/m -2,4 C -0,4 C 11,3 km/h (2 Bft) 100,00 %
23.11.2015 03:30 -0,1 C 84 % 1015,6 hPa 0,0 l/m 8,6 km/h (2 Bft) S 178 0 min 0,000 mm 0,0 UV-I 0 W/m -2,5 C -2,3 C 14,5 km/h (3 Bft) 98,33 %
23.11.2015 03:35 -0,1 C 83 % 1015,7 hPa 0,0 l/m 9,4 km/h (2 Bft) S 188 0 min 0,000 mm 0,0 UV-I 0 W/m -2,6 C -3,0 C 14,5 km/h (3 Bft) 100,00 %
23.11.2015 03:40 0,1 C 82 % 1015,7 hPa 0,0 l/m 9,5 km/h (2 Bft) S-SW 192 0 min 0,000 mm 0,0 UV-I 0 W/m -2,6 C -2,9 C 14,5 km/h (3 Bft) 99,11 %
23.11.2015 03:45 0,1 C 82 % 1015,8 hPa 0,0 l/m 9,8 km/h (2 Bft) S 191 0 min 0,000 mm 0,0 UV-I 0 W/m -2,6 C -3,2 C 14,5 km/h (3 Bft) 99,17 %
23.11.2015 03:50 0,2 C 81 % 1015,9 hPa 0,0 l/m 9,5 km/h (2 Bft) S 190 0 min 0,000 mm 0,0 UV-I 0 W/m -2,7 C -2,8 C 16,1 km/h (3 Bft) 100,00 %
23.11.2015 03:55 0,3 C 81 % 1015,9 hPa 0,0 l/m 6,3 km/h (2 Bft) S 188 0 min 0,000 mm 0,0 UV-I 0 W/m -2,6 C 0,3 C 9,7 km/h (2 Bft) 100,00 %
23.11.2015 04:00 0,2 C 81 % 1015,9 hPa 0,0 l/m 7,5 km/h (2 Bft) S-SW 196 0 min 0,000 mm 0,0 UV-I 0 W/m -2,7 C -0,9 C 11,3 km/h (2 Bft) 98,35 %
23.11.2015 04:05 0,1 C 82 % 1015,9 hPa 0,0 l/m 7,0 km/h (2 Bft) S-SW 200 0 min 0,000 mm 0,0 UV-I 0 W/m -2,6 C -0,5 C 11,3 km/h (2 Bft) 97,98 %
23.11.2015 04:10 0,0 C 82 % 1016,0 hPa 0,0 l/m 8,4 km/h (2 Bft) S 182 0 min 0,000 mm 0,0 UV-I 0 W/m -2,7 C -2,0 C 12,9 km/h (3 Bft) 100,00 %
23.11.2015 04:15 -0,1 C 83 % 1016,0 hPa 0,0 l/m 8,4 km/h (2 Bft) S-SW 196 0 min 0,000 mm 0,0 UV-I 0 W/m -2,6 C -2,1 C 12,9 km/h (3 Bft) 99,19 %
23.11.2015 04:20 -0,2 C 83 % 1016,1 hPa 0,0 l/m 7,7 km/h (2 Bft) S-SW 196 0 min 0,000 mm 0,0 UV-I 0 W/m -2,7 C -1,6 C 12,9 km/h (3 Bft) 99,00 %
23.11.2015 04:25 -0,2 C 83 % 1016,2 hPa 0,0 l/m 9,5 km/h (2 Bft) S-SW 194 0 min 0,000 mm 0,0 UV-I 0 W/m -2,7 C -3,2 C 14,5 km/h (3 Bft) 99,24 %
23.11.2015 04:30 -0,1 C 83 % 1016,2 hPa 0,0 l/m 11,7 km/h (2 Bft) S-SW 192 0 min 0,000 mm 0,0 UV-I 0 W/m -2,6 C -4,9 C 16,1 km/h (3 Bft) 100,00 %
23.11.2015 04:35 0,2 C 82 % 1016,3 hPa 0,0 l/m 10,2 km/h (2 Bft) S 173 0 min 0,000 mm 0,0 UV-I 0 W/m -2,5 C -3,4 C 17,7 km/h (3 Bft) 100,00 %
23.11.2015 04:40 0,3 C 81 % 1016,4 hPa 0,0 l/m 10,8 km/h (2 Bft) S-SW 200 0 min 0,000 mm 0,0 UV-I 0 W/m -2,6 C -3,8 C 16,1 km/h (3 Bft) 99,08 %
23.11.2015 04:45 0,4 C 81 % 1016,4 hPa 0,0 l/m 9,5 km/h (2 Bft) S-SW 210 0 min 0,000 mm 0,0 UV-I 0 W/m -2,5 C -2,6 C 14,5 km/h (3 Bft) 99,21 %
23.11.2015 04:50 0,5 C 80 % 1016,5 hPa 0,0 l/m 6,6 km/h (2 Bft) S 186 0 min 0,000 mm 0,0 UV-I 0 W/m -2,5 C 0,3 C 12,9 km/h (3 Bft) 99,13 %
23.11.2015 04:55 0,5 C 81 % 1016,6 hPa 0,0 l/m 7,1 km/h (2 Bft) SW 236 0 min 0,000 mm 0,0 UV-I 0 W/m -2,4 C -0,2 C 14,5 km/h (3 Bft) 99,15 %
23.11.2015 05:00 0,4 C 82 % 1016,6 hPa 0,0 l/m 7,6 km/h (2 Bft) SW 233 0 min 0,025 mm 0,0 UV-I 0 W/m -2,3 C -0,8 C 12,9 km/h (3 Bft) 96,33 %
23.11.2015 05:05 0,3 C 82 % 1016,7 hPa 0,0 l/m 7,1 km/h (2 Bft) W-SW 237 0 min 0,000 mm 0,0 UV-I 0 W/m -2,4 C -0,4 C 11,3 km/h (2 Bft) 94,87 %
23.11.2015 05:10 0,3 C 82 % 1016,7 hPa 0,0 l/m 4,9 km/h (1 Bft) W-SW 258 0 min 0,000 mm 0,0 UV-I 0 W/m -2,4 C 0,3 C 8,0 km/h (2 Bft) 97,46 %
23.11.2015 05:15 0,2 C 83 % 1016,8 hPa 0,0 l/m 5,2 km/h (1 Bft) W-SW 254 0 min 0,000 mm 0,0 UV-I 0 W/m -2,3 C 0,2 C 8,0 km/h (2 Bft) 96,40 %
23.11.2015 05:20 0,2 C 83 % 1016,8 hPa 0,0 l/m 5,8 km/h (2 Bft) W-SW 247 0 min 0,000 mm 0,0 UV-I 0 W/m -2,3 C 0,2 C 9,7 km/h (2 Bft) 95,12 %
23.11.2015 05:25 0,2 C 82 % 1016,8 hPa 0,0 l/m 5,2 km/h (1 Bft) W-SW 244 0 min 0,000 mm 0,0 UV-I 0 W/m -2,5 C 0,2 C 9,7 km/h (2 Bft) 97,52 %
23.11.2015 05:30 0,1 C 83 % 1016,9 hPa 0,0 l/m 4,7 km/h (1 Bft) S-SW 212 0 min 0,000 mm 0,0 UV-I 0 W/m -2,4 C 0,1 C 8,0 km/h (2 Bft) 97,50 %
23.11.2015 05:35 -0,1 C 83 % 1017,0 hPa 0,0 l/m 3,4 km/h (1 Bft) S-SW 211 0 min 0,000 mm 0,0 UV-I 0 W/m -2,6 C -0,1 C 6,4 km/h (2 Bft) 98,17 %
23.11.2015 05:40 0,0 C 83 % 1017,1 hPa 0,0 l/m 3,2 km/h (1 Bft) S-SW 194 0 min 0,000 mm 0,0 UV-I 0 W/m -2,5 C 0,0 C 6,4 km/h (2 Bft) 98,37 %
23.11.2015 05:45 0,0 C 83 % 1017,1 hPa 0,0 l/m 3,3 km/h (1 Bft) S 180 0 min 0,000 mm 0,0 UV-I 0 W/m -2,5 C 0,0 C 6,4 km/h (2 Bft) 97,39 %
23.11.2015 05:50 0,1 C 83 % 1017,1 hPa 0,0 l/m 3,1 km/h (1 Bft) S-SW 208 0 min 0,000 mm 0,0 UV-I 0 W/m -2,4 C 0,1 C 6,4 km/h (2 Bft) 98,26 %
23.11.2015 05:55 0,1 C 83 % 1017,2 hPa 0,0 l/m 2,9 km/h (1 Bft) S-SW 205 0 min 0,000 mm 0,0 UV-I 0 W/m -2,4 C 0,1 C 4,8 km/h (1 Bft) 100,00 %
23.11.2015 06:00 0,1 C 84 % 1017,3 hPa 0,0 l/m 2,8 km/h (1 Bft) S 188 0 min 0,000 mm 0,0 UV-I 0 W/m -2,3 C 0,1 C 4,8 km/h (1 Bft) 99,11 %
23.11.2015 06:05 0,2 C 83 % 1017,4 hPa 0,0 l/m 3,0 km/h (1 Bft) SW 236 0 min 0,000 mm 0,0 UV-I 0 W/m -2,3 C 0,2 C 4,8 km/h (1 Bft) 100,00 %
23.11.2015 06:10 0,3 C 83 % 1017,4 hPa 0,0 l/m 4,0 km/h (1 Bft) S 176 0 min 0,000 mm 0,0 UV-I 0 W/m -2,2 C 0,3 C 8,0 km/h (2 Bft) 100,00 %
23.11.2015 06:15 0,3 C 83 % 1017,5 hPa 0,0 l/m 4,9 km/h (1 Bft) SW 219 0 min 0,000 mm 0,0 UV-I 0 W/m -2,2 C 0,3 C 9,7 km/h (2 Bft) 99,15 %
23.11.2015 06:20 0,3 C 83 % 1017,6 hPa 0,0 l/m 5,6 km/h (1 Bft) S-SW 192 0 min 0,000 mm 0,0 UV-I 0 W/m -2,2 C 0,3 C 9,7 km/h (2 Bft) 98,33 %
23.11.2015 06:25 0,4 C 82 % 1017,7 hPa 0,0 l/m 5,0 km/h (1 Bft) SW 228 0 min 0,000 mm 0,0 UV-I 0 W/m -2,3 C 0,4 C 8,0 km/h (2 Bft) 100,00 %
23.11.2015 06:30 0,4 C 83 % 1017,7 hPa 0,0 l/m 5,4 km/h (1 Bft) SW 214 0 min 0,000 mm 0,0 UV-I 0 W/m -2,1 C 0,4 C 9,7 km/h (2 Bft) 100,00 %
23.11.2015 06:35 0,3 C 83 % 1017,8 hPa 0,0 l/m 6,3 km/h (2 Bft) SW 219 0 min 0,000 mm 0,0 UV-I 0 W/m -2,2 C 0,3 C 12,9 km/h (3 Bft) 100,00 %
23.11.2015 06:40 0,4 C 82 % 1017,9 hPa 0,0 l/m 5,9 km/h (2 Bft) SW 224 0 min 0,000 mm 0,0 UV-I 0 W/m -2,3 C 0,4 C 9,7 km/h (2 Bft) 98,39 %
23.11.2015 06:45 0,4 C 83 % 1018,0 hPa 0,0 l/m 4,9 km/h (1 Bft) W 280 0 min 0,000 mm 0,0 UV-I 0 W/m -2,1 C 0,4 C 8,0 km/h (2 Bft) 100,00 %
23.11.2015 06:50 0,4 C 83 % 1018,0 hPa 0,0 l/m 5,4 km/h (1 Bft) SW 233 0 min 0,000 mm 0,0 UV-I 0 W/m -2,1 C 0,4 C 9,7 km/h (2 Bft) 100,00 %
23.11.2015 06:55 0,3 C 83 % 1018,1 hPa 0,0 l/m 7,6 km/h (2 Bft) SW 234 0 min 0,000 mm 0,0 UV-I 0 W/m -2,2 C -0,9 C 12,9 km/h (3 Bft) 98,21 %
23.11.2015 07:00 0,3 C 83 % 1018,1 hPa 0,0 l/m 7,0 km/h (2 Bft) SW 229 0 min 0,000 mm 0,0 UV-I 0 W/m -2,2 C -0,3 C 11,3 km/h (2 Bft) 99,17 %
23.11.2015 07:05 0,4 C 83 % 1018,2 hPa 0,0 l/m 7,4 km/h (2 Bft) S-SW 213 0 min 0,000 mm 0,0 UV-I 0 W/m -2,1 C -0,6 C 12,9 km/h (3 Bft) 96,77 %
23.11.2015 07:10 0,4 C 83 % 1018,3 hPa 0,0 l/m 7,3 km/h (2 Bft) S-SW 196 0 min 0,000 mm 0,0 UV-I 0 W/m -2,1 C -0,5 C 11,3 km/h (2 Bft) 98,21 %
23.11.2015 07:15 0,4 C 83 % 1018,3 hPa 0,0 l/m 7,8 km/h (2 Bft) S 186 0 min 0,000 mm 0,0 UV-I 0 W/m -2,1 C -1,0 C 12,9 km/h (3 Bft) 97,50 %
23.11.2015 07:20 0,4 C 83 % 1018,5 hPa 0,0 l/m 6,6 km/h (2 Bft) S 186 0 min 0,000 mm 0,0 UV-I 0 W/m -2,1 C 0,2 C 11,3 km/h (2 Bft) 96,52 %
23.11.2015 07:25 0,4 C 84 % 1018,5 hPa 0,0 l/m 6,5 km/h (2 Bft) S-SW 192 0 min 0,000 mm 0,0 UV-I 0 W/m -2,0 C 0,3 C 11,3 km/h (2 Bft) 97,39 %
23.11.2015 07:30 0,3 C 85 % 1018,6 hPa 0,0 l/m 6,5 km/h (2 Bft) S 190 0 min 0,000 mm 0,0 UV-I 0 W/m -1,9 C 0,2 C 9,7 km/h (2 Bft) 96,83 %
23.11.2015 07:35 0,3 C 85 % 1018,6 hPa 0,0 l/m 8,9 km/h (2 Bft) SW 226 0 min 0,000 mm 0,0 UV-I 5 W/m -1,9 C -2,2 C 17,7 km/h (3 Bft) 97,17 %
23.11.2015 07:40 0,4 C 85 % 1018,7 hPa 0,0 l/m 10,9 km/h (2 Bft) W-SW 237 0 min 0,000 mm 0,0 UV-I 7 W/m -1,8 C -3,7 C 17,7 km/h (3 Bft) 95,12 %
23.11.2015 07:45 0,6 C 83 % 1018,8 hPa 0,0 l/m 8,0 km/h (2 Bft) S-SW 212 0 min 0,000 mm 0,0 UV-I 8 W/m -1,9 C -1,0 C 14,5 km/h (3 Bft) 98,26 %
23.11.2015 07:50 0,6 C 83 % 1018,9 hPa 0,0 l/m 8,6 km/h (2 Bft) S 189 0 min 0,000 mm 0,0 UV-I 11 W/m -1,9 C -1,6 C 14,5 km/h (3 Bft) 98,31 %
23.11.2015 07:55 0,6 C 83 % 1018,9 hPa 0,0 l/m 9,1 km/h (2 Bft) S 184 0 min 0,000 mm 0,0 UV-I 16 W/m -1,9 C -2,0 C 14,5 km/h (3 Bft) 99,10 %
23.11.2015 08:00 0,7 C 82 % 1019,0 hPa 0,0 l/m 8,2 km/h (2 Bft) S-SW 209 0 min 0,026 mm 0,0 UV-I 26 W/m -2,0 C -1,1 C 14,5 km/h (3 Bft) 100,00 %
23.11.2015 08:05 0,7 C 82 % 1019,0 hPa 0,0 l/m 10,2 km/h (2 Bft) SW 217 0 min 0,000 mm 0,0 UV-I 47 W/m -2,0 C -2,8 C 17,7 km/h (3 Bft) 100,00 %
23.11.2015 08:10 0,8 C 82 % 1019,1 hPa 0,0 l/m 11,1 km/h (2 Bft) SW 228 0 min 0,000 mm 0,0 UV-I 55 W/m -1,9 C -3,4 C 19,3 km/h (3 Bft) 100,00 %
23.11.2015 08:15 0,8 C 82 % 1019,2 hPa 0,0 l/m 9,9 km/h (2 Bft) S 182 0 min 0,000 mm 0,0 UV-I 40 W/m -1,9 C -2,5 C 17,7 km/h (3 Bft) 99,11 %
23.11.2015 08:20 0,8 C 82 % 1019,3 hPa 0,0 l/m 10,5 km/h (2 Bft) S-SW 208 0 min 0,000 mm 0,0 UV-I 38 W/m -1,9 C -3,0 C 17,7 km/h (3 Bft) 99,12 %
23.11.2015 08:25 0,8 C 82 % 1019,4 hPa 0,0 l/m 10,7 km/h (2 Bft) S-SW 194 0 min 0,000 mm 0,0 UV-I 25 W/m -1,9 C -3,1 C 17,7 km/h (3 Bft) 98,39 %
23.11.2015 08:30 0,9 C 82 % 1019,5 hPa 0,0 l/m 8,4 km/h (2 Bft) SW 225 0 min 0,000 mm 0,0 UV-I 19 W/m -1,8 C -1,1 C 16,1 km/h (3 Bft) 99,15 %
23.11.2015 08:35 0,9 C 82 % 1019,6 hPa 0,0 l/m 9,1 km/h (2 Bft) W-SW 237 0 min 0,000 mm 0,0 UV-I 17 W/m -1,8 C -1,7 C 17,7 km/h (3 Bft) 98,29 %
23.11.2015 08:40 0,9 C 82 % 1019,8 hPa 0,0 l/m 10,9 km/h (2 Bft) SW 220 0 min 0,000 mm 0,0 UV-I 19 W/m -1,8 C -3,2 C 17,7 km/h (3 Bft) 100,00 %
23.11.2015 08:45 0,9 C 82 % 1020,0 hPa 0,0 l/m 10,3 km/h (2 Bft) W 267 0 min 0,000 mm 0,0 UV-I 17 W/m -1,8 C -2,7 C 19,3 km/h (3 Bft) 100,00 %
23.11.2015 08:50 0,7 C 86 % 1020,0 hPa 0,0 l/m 13,1 km/h (3 Bft) W-SW 244 0 min 0,000 mm 0,0 UV-I 23 W/m -1,4 C -4,9 C 24,1 km/h (4 Bft) 98,20 %
23.11.2015 08:55 0,5 C 87 % 1020,2 hPa 0,0 l/m 11,3 km/h (2 Bft) SW 236 0 min 0,000 mm 0,0 UV-I 37 W/m -1,4 C -3,9 C 19,3 km/h (3 Bft) 97,58 %
23.11.2015 09:00 0,5 C 87 % 1020,2 hPa 0,0 l/m 12,1 km/h (2 Bft) SW 221 0 min 0,025 mm 0,0 UV-I 42 W/m -1,4 C -4,5 C 19,3 km/h (3 Bft) 98,25 %
23.11.2015 09:05 0,6 C 86 % 1020,3 hPa 0,0 l/m 13,3 km/h (3 Bft) S-SW 205 0 min 0,000 mm 0,0 UV-I 41 W/m -1,5 C -5,2 C 20,9 km/h (4 Bft) 98,21 %
23.11.2015 09:10 0,6 C 86 % 1020,4 hPa 0,0 l/m 12,5 km/h (3 Bft) SW 217 0 min 0,000 mm 0,0 UV-I 52 W/m -1,5 C -4,7 C 25,7 km/h (4 Bft) 95,87 %
23.11.2015 09:15 0,6 C 87 % 1020,4 hPa 0,0 l/m 11,7 km/h (2 Bft) W-SW 257 0 min 0,000 mm 0,0 UV-I 59 W/m -1,3 C -4,1 C 20,9 km/h (4 Bft) 97,44 %
23.11.2015 09:20 0,7 C 87 % 1020,5 hPa 0,0 l/m 13,3 km/h (3 Bft) SW 217 0 min 0,000 mm 0,0 UV-I 61 W/m -1,2 C -5,1 C 22,5 km/h (4 Bft) 97,46 %
23.11.2015 09:25 0,7 C 86 % 1020,5 hPa 0,0 l/m 13,0 km/h (3 Bft) S-SW 212 0 min 0,000 mm 0,0 UV-I 59 W/m -1,4 C -4,9 C 20,9 km/h (4 Bft) 95,83 %
23.11.2015 09:30 0,8 C 86 % 1020,5 hPa 0,0 l/m 16,8 km/h (3 Bft) SW 234 0 min 0,000 mm 0,0 UV-I 82 W/m -1,3 C -7,0 C 29,0 km/h (5 Bft) 97,96 %
23.11.2015 09:35 0,9 C 86 % 1020,6 hPa 0,0 l/m 16,6 km/h (3 Bft) SW 216 0 min 0,000 mm 0,0 UV-I 86 W/m -1,2 C -6,8 C 25,7 km/h (4 Bft) 97,10 %
23.11.2015 09:40 1,0 C 86 % 1020,6 hPa 0,0 l/m 18,2 km/h (3 Bft) SW 236 0 min 0,000 mm 0,0 UV-I 109 W/m -1,1 C -7,5 C 27,4 km/h (4 Bft) 95,73 %
23.11.2015 09:45 1,1 C 86 % 1020,6 hPa 0,0 l/m 18,5 km/h (3 Bft) SW 223 0 min 0,000 mm 0,0 UV-I 134 W/m -1,0 C -7,5 C 32,2 km/h (5 Bft) 97,25 %
23.11.2015 09:50 1,2 C 86 % 1020,8 hPa 0,0 l/m 19,0 km/h (3 Bft) W 267 0 min 0,000 mm 0,0 UV-I 152 W/m -0,9 C -7,6 C 29,0 km/h (5 Bft) 98,43 %
23.11.2015 09:55 1,3 C 86 % 1020,8 hPa 0,0 l/m 16,7 km/h (3 Bft) SW 227 0 min 0,000 mm 0,0 UV-I 155 W/m -0,8 C -6,3 C 27,4 km/h (4 Bft) 99,02 %
23.11.2015 10:00 1,4 C 85 % 1020,9 hPa 0,0 l/m 18,1 km/h (3 Bft) W-SW 242 0 min 0,051 mm 0,0 UV-I 136 W/m -0,8 C -6,9 C 29,0 km/h (5 Bft) 100,00 %
23.11.2015 10:05 1,4 C 85 % 1021,0 hPa 0,0 l/m 18,8 km/h (3 Bft) SW 217 0 min 0,000 mm 0,0 UV-I 141 W/m -0,8 C -7,3 C 33,8 km/h (5 Bft) 100,00 %
23.11.2015 10:10 1,6 C 86 % 1021,1 hPa 0,0 l/m 19,1 km/h (3 Bft) SW 215 0 min 0,000 mm 0,0 UV-I 146 W/m -0,5 C -7,2 C 33,8 km/h (5 Bft) 100,00 %
23.11.2015 10:15 1,6 C 86 % 1021,1 hPa 0,0 l/m 17,4 km/h (3 Bft) W-SW 252 0 min 0,000 mm 0,0 UV-I 146 W/m -0,5 C -6,3 C 29,0 km/h (5 Bft) 99,13 %
23.11.2015 10:20 1,7 C 86 % 1021,3 hPa 0,0 l/m 15,2 km/h (3 Bft) SW 236 0 min 0,000 mm 0,0 UV-I 154 W/m -0,4 C -5,0 C 29,0 km/h (5 Bft) 99,11 %
23.11.2015 10:25 1,7 C 85 % 1021,4 hPa 0,0 l/m 17,0 km/h (3 Bft) S-SW 195 0 min 0,000 mm 0,0 UV-I 138 W/m -0,5 C -6,0 C 27,4 km/h (4 Bft) 97,44 %
23.11.2015 10:30 1,8 C 85 % 1021,5 hPa 0,0 l/m 17,9 km/h (3 Bft) W-SW 239 0 min 0,000 mm 0,0 UV-I 131 W/m -0,4 C -6,3 C 27,4 km/h (4 Bft) 100,00 %
23.11.2015 10:35 1,8 C 85 % 1021,5 hPa 0,0 l/m 14,2 km/h (3 Bft) SW 234 0 min 0,000 mm 0,0 UV-I 170 W/m -0,4 C -4,3 C 22,5 km/h (4 Bft) 98,25 %
23.11.2015 10:40 1,9 C 85 % 1021,5 hPa 0,0 l/m 15,9 km/h (3 Bft) SW 220 5 min 0,000 mm 0,0 UV-I 191 W/m -0,3 C -5,2 C 24,1 km/h (4 Bft) 98,39 %
23.11.2015 10:45 2,0 C 85 % 1021,5 hPa 0,0 l/m 14,9 km/h (3 Bft) W-SW 238 5 min 0,000 mm 0,0 UV-I 207 W/m -0,3 C -4,5 C 24,1 km/h (4 Bft) 100,00 %
23.11.2015 10:50 2,1 C 83 % 1021,5 hPa 0,0 l/m 16,5 km/h (3 Bft) S-SW 192 5 min 0,000 mm 0,0 UV-I 211 W/m -0,5 C -5,3 C 27,4 km/h (4 Bft) 100,00 %
23.11.2015 10:55 2,1 C 83 % 1021,5 hPa 0,0 l/m 14,1 km/h (3 Bft) SW 232 0 min 0,000 mm 0,1 UV-I 172 W/m -0,5 C -3,9 C 24,1 km/h (4 Bft) 98,21 %
23.11.2015 11:00 2,2 C 84 % 1021,5 hPa 0,0 l/m 15,5 km/h (3 Bft) S-SW 211 0 min 0,076 mm 0,5 UV-I 177 W/m -0,2 C -4,6 C 22,5 km/h (4 Bft) 100,00 %
23.11.2015 11:05 2,2 C 84 % 1021,6 hPa 0,0 l/m 19,5 km/h (3 Bft) S-SW 207 0 min 0,000 mm 0,2 UV-I 172 W/m -0,2 C -6,6 C 33,8 km/h (5 Bft) 98,45 %
23.11.2015 11:10 2,2 C 83 % 1021,6 hPa 0,0 l/m 18,4 km/h (3 Bft) SW 235 0 min 0,000 mm 0,2 UV-I 163 W/m -0,4 C -6,1 C 29,0 km/h (5 Bft) 97,46 %
23.11.2015 11:15 2,2 C 84 % 1021,6 hPa 0,0 l/m 14,4 km/h (3 Bft) SW 232 0 min 0,000 mm 0,2 UV-I 149 W/m -0,2 C -4,0 C 25,7 km/h (4 Bft) 97,14 %
23.11.2015 11:20 2,3 C 83 % 1021,6 hPa 0,0 l/m 14,4 km/h (3 Bft) SW 225 0 min 0,000 mm 0,5 UV-I 152 W/m -0,3 C -3,9 C 22,5 km/h (4 Bft) 97,52 %
23.11.2015 11:25 2,3 C 83 % 1021,6 hPa 0,0 l/m 13,6 km/h (3 Bft) SW 233 5 min 0,000 mm 0,5 UV-I 209 W/m -0,3 C -3,4 C 24,1 km/h (4 Bft) 98,31 %
23.11.2015 11:30 2,3 C 84 % 1021,6 hPa 0,0 l/m 17,2 km/h (3 Bft) SW 221 0 min 0,000 mm 0,5 UV-I 180 W/m -0,1 C -5,4 C 35,4 km/h (5 Bft) 97,56 %
23.11.2015 11:35 2,4 C 83 % 1021,5 hPa 0,0 l/m 17,3 km/h (3 Bft) SW 217 0 min 0,000 mm 0,5 UV-I 180 W/m -0,2 C -5,3 C 27,4 km/h (4 Bft) 97,25 %
23.11.2015 11:40 2,4 C 84 % 1021,5 hPa 0,0 l/m 15,2 km/h (3 Bft) SW 221 5 min 0,000 mm 0,6 UV-I 218 W/m -0,0 C -4,2 C 24,1 km/h (4 Bft) 99,19 %
23.11.2015 11:45 2,5 C 82 % 1021,5 hPa 0,0 l/m 19,2 km/h (3 Bft) S-SW 212 5 min 0,000 mm 0,5 UV-I 212 W/m -0,3 C -6,1 C 29,0 km/h (5 Bft) 98,17 %
23.11.2015 11:50 2,4 C 82 % 1021,5 hPa 0,0 l/m 18,3 km/h (3 Bft) S-SW 206 0 min 0,000 mm 0,5 UV-I 144 W/m -0,4 C -5,8 C 29,0 km/h (5 Bft) 98,39 %
23.11.2015 11:55 2,5 C 83 % 1021,5 hPa 0,0 l/m 15,1 km/h (3 Bft) SW 235 0 min 0,000 mm 0,6 UV-I 171 W/m -0,1 C -4,0 C 29,0 km/h (5 Bft) 98,11 %
23.11.2015 12:00 2,4 C 81 % 1021,5 hPa 0,0 l/m 17,4 km/h (3 Bft) SW 221 0 min 0,076 mm 0,5 UV-I 125 W/m -0,5 C -5,3 C 29,0 km/h (5 Bft) 100,00 %
23.11.2015 12:05 2,3 C 82 % 1021,6 hPa 0,0 l/m 19,8 km/h (3 Bft) SW 218 0 min 0,000 mm 0,6 UV-I 127 W/m -0,4 C -6,6 C 32,2 km/h (5 Bft) 100,00 %
23.11.2015 12:10 2,4 C 81 % 1021,5 hPa 0,0 l/m 17,6 km/h (3 Bft) SW 232 0 min 0,000 mm 0,6 UV-I 157 W/m -0,5 C -5,4 C 27,4 km/h (4 Bft) 100,00 %
23.11.2015 12:15 2,8 C 81 % 1021,5 hPa 0,0 l/m 15,8 km/h (3 Bft) W-SW 247 5 min 0,000 mm 0,7 UV-I 302 W/m -0,1 C -4,0 C 25,7 km/h (4 Bft) 99,15 %
23.11.2015 12:20 2,7 C 80 % 1021,6 hPa 0,0 l/m 18,4 km/h (3 Bft) SW 224 0 min 0,000 mm 0,6 UV-I 143 W/m -0,4 C -5,4 C 29,0 km/h (5 Bft) 98,37 %
23.11.2015 12:25 2,8 C 81 % 1021,7 hPa 0,0 l/m 13,8 km/h (3 Bft) SW 214 5 min 0,000 mm 0,6 UV-I 258 W/m -0,1 C -2,9 C 25,7 km/h (4 Bft) 98,26 %
23.11.2015 12:30 2,9 C 79 % 1021,8 hPa 0,0 l/m 14,1 km/h (3 Bft) SW 230 5 min 0,000 mm 0,6 UV-I 285 W/m -0,4 C -3,0 C 25,7 km/h (4 Bft) 99,13 %
23.11.2015 12:35 2,8 C 79 % 1021,8 hPa 0,0 l/m 15,0 km/h (3 Bft) SW 232 0 min 0,000 mm 0,4 UV-I 120 W/m -0,5 C -3,6 C 27,4 km/h (4 Bft) 99,15 %
23.11.2015 12:40 2,7 C 78 % 1021,9 hPa 0,0 l/m 17,5 km/h (3 Bft) W-SW 243 0 min 0,000 mm 0,0 UV-I 142 W/m -0,7 C -5,0 C 32,2 km/h (5 Bft) 100,00 %
23.11.2015 12:45 2,7 C 78 % 1021,9 hPa 0,0 l/m 17,6 km/h (3 Bft) SW 224 0 min 0,000 mm 0,0 UV-I 109 W/m -0,7 C -5,1 C 32,2 km/h (5 Bft) 100,00 %
23.11.2015 12:50 2,8 C 78 % 1022,0 hPa 0,0 l/m 17,1 km/h (3 Bft) SW 222 0 min 0,000 mm 0,0 UV-I 124 W/m -0,6 C -4,7 C 32,2 km/h (5 Bft) 100,00 %
23.11.2015 12:55 2,8 C 77 % 1022,0 hPa 0,0 l/m 16,7 km/h (3 Bft) S-SW 194 0 min 0,000 mm 0,3 UV-I 122 W/m -0,8 C -4,5 C 25,7 km/h (4 Bft) 96,52 %
23.11.2015 13:00 2,8 C 77 % 1021,9 hPa 0,0 l/m 16,0 km/h (3 Bft) SW 225 0 min 0,077 mm 0,0 UV-I 121 W/m -0,8 C -4,1 C 24,1 km/h (4 Bft) 98,31 %
23.11.2015 13:05 2,8 C 77 % 1021,9 hPa 0,0 l/m 15,1 km/h (3 Bft) SW 229 0 min 0,000 mm 0,0 UV-I 116 W/m -0,8 C -3,6 C 25,7 km/h (4 Bft) 96,03 %
23.11.2015 13:10 2,9 C 76 % 1022,0 hPa 0,0 l/m 17,2 km/h (3 Bft) SW 229 0 min 0,000 mm 0,0 UV-I 134 W/m -0,9 C -4,6 C 29,0 km/h (5 Bft) 97,32 %
23.11.2015 13:15 3,2 C 78 % 1022,0 hPa 0,0 l/m 13,3 km/h (3 Bft) S-SW 204 5 min 0,000 mm 0,3 UV-I 184 W/m -0,3 C -2,1 C 24,1 km/h (4 Bft) 96,49 %
23.11.2015 13:20 3,7 C 75 % 1022,0 hPa 0,0 l/m 16,1 km/h (3 Bft) S-SW 213 5 min 0,000 mm 0,5 UV-I 338 W/m -0,3 C -3,1 C 27,4 km/h (4 Bft) 97,58 %
23.11.2015 13:25 3,8 C 76 % 1022,1 hPa 0,0 l/m 14,5 km/h (3 Bft) SW 225 5 min 0,000 mm 0,3 UV-I 422 W/m -0,0 C -2,1 C 25,7 km/h (4 Bft) 98,25 %
23.11.2015 13:30 3,8 C 73 % 1022,0 hPa 0,0 l/m 20,6 km/h (4 Bft) SW 221 5 min 0,000 mm 0,2 UV-I 409 W/m -0,6 C -5,0 C 32,2 km/h (5 Bft) 97,88 %
23.11.2015 13:35 4,1 C 74 % 1022,0 hPa 0,0 l/m 20,6 km/h (4 Bft) W-SW 242 5 min 0,000 mm 0,0 UV-I 417 W/m -0,1 C -4,6 C 32,2 km/h (5 Bft) 100,00 %
23.11.2015 13:40 4,2 C 71 % 1022,0 hPa 0,0 l/m 18,9 km/h (3 Bft) S 178 5 min 0,000 mm 0,0 UV-I 428 W/m -0,6 C -3,7 C 32,2 km/h (5 Bft) 99,13 %
23.11.2015 13:45 4,1 C 72 % 1022,1 hPa 0,0 l/m 20,9 km/h (4 Bft) W-SW 255 5 min 0,000 mm 0,0 UV-I 408 W/m -0,5 C -4,7 C 33,8 km/h (5 Bft) 98,17 %
23.11.2015 13:50 4,0 C 71 % 1022,1 hPa 0,0 l/m 22,1 km/h (4 Bft) SO 136 5 min 0,000 mm 0,0 UV-I 289 W/m -0,8 C -5,3 C 38,6 km/h (5 Bft) 99,21 %
23.11.2015 13:55 3,6 C 72 % 1022,2 hPa 0,0 l/m 19,8 km/h (3 Bft) S-SW 195 0 min 0,000 mm 0,0 UV-I 128 W/m -1,0 C -4,9 C 35,4 km/h (5 Bft) 99,08 %
23.11.2015 14:00 3,4 C 72 % 1022,3 hPa 0,0 l/m 17,2 km/h (3 Bft) W-SW 245 0 min 0,152 mm 0,0 UV-I 96 W/m -1,2 C -4,0 C 30,6 km/h (5 Bft) 100,00 %
23.11.2015 14:05 3,3 C 76 % 1022,5 hPa 0,0 l/m 12,7 km/h (3 Bft) W 263 0 min 0,000 mm 0,0 UV-I 47 W/m -0,5 C -1,6 C 22,5 km/h (4 Bft) 99,22 %
23.11.2015 14:10 3,1 C 78 % 1022,5 hPa 0,0 l/m 9,1 km/h (2 Bft) W-SW 241 0 min 0,000 mm 0,0 UV-I 32 W/m -0,4 C 0,7 C 24,1 km/h (4 Bft) 100,00 %
23.11.2015 14:15 2,4 C 80 % 1022,5 hPa 0,0 l/m 16,1 km/h (3 Bft) W 270 0 min 0,000 mm 0,0 UV-I 51 W/m -0,7 C -4,7 C 33,8 km/h (5 Bft) 98,25 %
23.11.2015 14:20 2,2 C 82 % 1022,6 hPa 0,0 l/m 19,9 km/h (4 Bft) W 266 0 min 0,000 mm 0,0 UV-I 46 W/m -0,5 C -6,7 C 30,6 km/h (5 Bft) 99,12 %
23.11.2015 14:25 2,3 C 79 % 1022,6 hPa 0,0 l/m 16,0 km/h (3 Bft) W 261 0 min 0,000 mm 0,0 UV-I 44 W/m -1,0 C -4,7 C 27,4 km/h (4 Bft) 99,19 %
23.11.2015 14:30 2,4 C 77 % 1022,6 hPa 0,0 l/m 13,9 km/h (3 Bft) W 259 0 min 0,000 mm 0,0 UV-I 41 W/m -1,2 C -3,4 C 20,9 km/h (4 Bft) 97,50 %
23.11.2015 14:35 2,5 C 76 % 1022,7 hPa 0,0 l/m 16,3 km/h (3 Bft) SW 236 0 min 0,000 mm 0,0 UV-I 37 W/m -1,3 C -4,7 C 25,7 km/h (4 Bft) 100,00 %
23.11.2015 14:40 2,6 C 77 % 1022,7 hPa 0,0 l/m 14,4 km/h (3 Bft) W 268 0 min 0,000 mm 0,0 UV-I 36 W/m -1,0 C -3,5 C 24,1 km/h (4 Bft) 97,32 %
23.11.2015 14:45 2,6 C 75 % 1022,7 hPa 0,0 l/m 13,9 km/h (3 Bft) W 281 0 min 0,000 mm 0,0 UV-I 48 W/m -1,4 C -3,2 C 19,3 km/h (3 Bft) 96,67 %
23.11.2015 14:50 2,6 C 76 % 1022,7 hPa 0,0 l/m 10,3 km/h (2 Bft) W-SW 250 0 min 0,000 mm 0,0 UV-I 50 W/m -1,2 C -0,8 C 19,3 km/h (3 Bft) 96,69 %
23.11.2015 14:55 2,6 C 76 % 1022,8 hPa 0,0 l/m 13,5 km/h (3 Bft) W-NW 284 0 min 0,000 mm 0,0 UV-I 40 W/m -1,2 C -3,0 C 22,5 km/h (4 Bft) 96,33 %
23.11.2015 15:00 2,6 C 76 % 1022,9 hPa 0,0 l/m 11,6 km/h (2 Bft) W 271 0 min 0,051 mm 0,0 UV-I 45 W/m -1,2 C -1,7 C 20,9 km/h (4 Bft) 97,30 %
23.11.2015 15:05 2,6 C 76 % 1023,0 hPa 0,0 l/m 10,0 km/h (2 Bft) SW 228 0 min 0,000 mm 0,0 UV-I 45 W/m -1,2 C -0,6 C 19,3 km/h (3 Bft) 95,87 %
23.11.2015 15:10 2,6 C 75 % 1023,1 hPa 0,0 l/m 10,2 km/h (2 Bft) W 269 0 min 0,000 mm 0,0 UV-I 42 W/m -1,4 C -0,7 C 16,1 km/h (3 Bft) 96,58 %
23.11.2015 15:15 2,6 C 75 % 1023,1 hPa 0,0 l/m 10,1 km/h (2 Bft) W 259 0 min 0,000 mm 0,0 UV-I 41 W/m -1,4 C -0,7 C 17,7 km/h (3 Bft) 100,00 %
23.11.2015 15:20 2,6 C 75 % 1023,1 hPa 0,0 l/m 11,0 km/h (2 Bft) W-SW 250 0 min 0,000 mm 0,0 UV-I 47 W/m -1,4 C -1,3 C 19,3 km/h (3 Bft) 99,11 %
23.11.2015 15:25 2,7 C 75 % 1023,1 hPa 0,0 l/m 8,9 km/h (2 Bft) W 280 0 min 0,000 mm 0,0 UV-I 44 W/m -1,3 C 0,4 C 17,7 km/h (3 Bft) 100,00 %
23.11.2015 15:30 2,7 C 76 % 1023,2 hPa 0,0 l/m 9,0 km/h (2 Bft) W 269 0 min 0,000 mm 0,0 UV-I 40 W/m -1,1 C 0,3 C 16,1 km/h (3 Bft) 99,21 %
23.11.2015 15:35 2,7 C 75 % 1023,2 hPa 0,0 l/m 10,0 km/h (2 Bft) W 270 0 min 0,000 mm 0,0 UV-I 34 W/m -1,3 C -0,5 C 19,3 km/h (3 Bft) 100,00 %
23.11.2015 15:40 2,7 C 74 % 1023,2 hPa 0,0 l/m 12,2 km/h (2 Bft) W 263 0 min 0,000 mm 0,0 UV-I 35 W/m -1,5 C -2,0 C 19,3 km/h (3 Bft) 99,12 %
23.11.2015 15:45 2,7 C 74 % 1023,2 hPa 0,0 l/m 14,0 km/h (3 Bft) W-SW 253 0 min 0,000 mm 0,0 UV-I 33 W/m -1,5 C -3,1 C 24,1 km/h (4 Bft) 100,00 %
23.11.2015 15:50 2,7 C 73 % 1023,3 hPa 0,0 l/m 12,1 km/h (2 Bft) W-SW 251 0 min 0,000 mm 0,0 UV-I 25 W/m -1,6 C -2,0 C 16,1 km/h (3 Bft) 98,26 %
23.11.2015 15:55 2,7 C 74 % 1023,4 hPa 0,0 l/m 11,4 km/h (2 Bft) W 277 0 min 0,000 mm 0,0 UV-I 20 W/m -1,5 C -1,5 C 19,3 km/h (3 Bft) 99,17 %
23.11.2015 16:00 2,7 C 73 % 1023,4 hPa 0,0 l/m 10,1 km/h (2 Bft) W 261 0 min 0,025 mm 0,0 UV-I 15 W/m -1,6 C -0,5 C 17,7 km/h (3 Bft) 98,35 %
23.11.2015 16:05 2,7 C 73 % 1023,5 hPa 0,0 l/m 10,7 km/h (2 Bft) W-SW 252 5 min 0,000 mm 0,0 UV-I 10 W/m -1,6 C -1,0 C 19,3 km/h (3 Bft) 100,00 %
23.11.2015 16:10 2,6 C 74 % 1023,6 hPa 0,0 l/m 9,7 km/h (2 Bft) W 269 0 min 0,000 mm 0,0 UV-I 7 W/m -1,6 C -0,3 C 16,1 km/h (3 Bft) 100,00 %
23.11.2015 16:15 2,6 C 74 % 1023,6 hPa 0,0 l/m 7,0 km/h (2 Bft) W 273 0 min 0,000 mm 0,0 UV-I 6 W/m -1,6 C 2,0 C 19,3 km/h (3 Bft) 99,17 %
23.11.2015 16:20 2,4 C 75 % 1023,7 hPa 0,0 l/m 4,0 km/h (1 Bft) W 275 0 min 0,000 mm 0,0 UV-I 5 W/m -1,6 C 2,4 C 6,4 km/h (2 Bft) 100,00 %
23.11.2015 16:25 2,3 C 76 % 1023,8 hPa 0,0 l/m 3,6 km/h (1 Bft) W 278 0 min 0,000 mm 0,0 UV-I 0 W/m -1,5 C 2,3 C 6,4 km/h (2 Bft) 98,43 %
23.11.2015 16:30 2,1 C 77 % 1023,8 hPa 0,0 l/m 3,2 km/h (1 Bft) W-NW 284 0 min 0,000 mm 0,0 UV-I 0 W/m -1,5 C 2,1 C 4,8 km/h (1 Bft) 100,00 %
23.11.2015 16:35 2,1 C 78 % 1023,8 hPa 0,0 l/m 3,0 km/h (1 Bft) W-NW 296 0 min 0,000 mm 0,0 UV-I 0 W/m -1,3 C 2,1 C 4,8 km/h (1 Bft) 100,00 %
23.11.2015 16:40 2,1 C 77 % 1023,9 hPa 0,0 l/m 4,9 km/h (1 Bft) W-NW 294 0 min 0,000 mm 0,0 UV-I 0 W/m -1,5 C 2,1 C 14,5 km/h (3 Bft) 97,64 %
23.11.2015 16:45 2,2 C 77 % 1023,9 hPa 0,0 l/m 6,1 km/h (2 Bft) W-SW 243 0 min 0,000 mm 0,0 UV-I 0 W/m -1,4 C 2,2 C 14,5 km/h (3 Bft) 96,49 %
23.11.2015 16:50 2,1 C 77 % 1024,0 hPa 0,0 l/m 6,1 km/h (2 Bft) W 263 0 min 0,000 mm 0,0 UV-I 0 W/m -1,5 C 2,1 C 11,3 km/h (2 Bft) 97,32 %
23.11.2015 16:55 2,1 C 77 % 1024,1 hPa 0,0 l/m 4,3 km/h (1 Bft) W-SW 257 0 min 0,000 mm 0,0 UV-I 0 W/m -1,5 C 2,1 C 8,0 km/h (2 Bft) 97,58 %
23.11.2015 17:00 1,9 C 78 % 1024,1 hPa 0,0 l/m 5,3 km/h (1 Bft) W 267 0 min 0,026 mm 0,0 UV-I 0 W/m -1,5 C 1,9 C 12,9 km/h (3 Bft) 98,37 %
23.11.2015 17:05 1,9 C 78 % 1024,2 hPa 0,0 l/m 4,0 km/h (1 Bft) W 275 0 min 0,000 mm 0,0 UV-I 0 W/m -1,5 C 1,9 C 11,3 km/h (2 Bft) 94,78 %
23.11.2015 17:10 1,8 C 79 % 1024,3 hPa 0,0 l/m 4,9 km/h (1 Bft) W 263 0 min 0,000 mm 0,0 UV-I 0 W/m -1,4 C 1,8 C 9,7 km/h (2 Bft) 95,61 %
23.11.2015 17:15 1,8 C 79 % 1024,4 hPa 0,0 l/m 4,3 km/h (1 Bft) W 264 0 min 0,000 mm 0,0 UV-I 0 W/m -1,4 C 1,8 C 6,4 km/h (2 Bft) 98,26 %
23.11.2015 17:20 1,7 C 80 % 1024,4 hPa 0,0 l/m 3,9 km/h (1 Bft) W 275 0 min 0,000 mm 0,0 UV-I 0 W/m -1,4 C 1,7 C 4,8 km/h (1 Bft) 100,00 %
23.11.2015 17:25 1,7 C 79 % 1024,6 hPa 0,0 l/m 3,7 km/h (1 Bft) W-SW 251 0 min 0,000 mm 0,0 UV-I 0 W/m -1,5 C 1,7 C 6,4 km/h (2 Bft) 98,33 %
23.11.2015 17:30 1,7 C 80 % 1024,6 hPa 0,0 l/m 3,2 km/h (1 Bft) W 265 0 min 0,000 mm 0,0 UV-I 0 W/m -1,4 C 1,7 C 4,8 km/h (1 Bft) 100,00 %
23.11.2015 17:35 1,6 C 80 % 1024,7 hPa 0,0 l/m 3,0 km/h (1 Bft) W 265 0 min 0,000 mm 0,0 UV-I 0 W/m -1,5 C 1,6 C 4,8 km/h (1 Bft) 100,00 %
23.11.2015 17:40 1,6 C 80 % 1024,7 hPa 0,0 l/m 3,0 km/h (1 Bft) W 265 0 min 0,000 mm 0,0 UV-I 0 W/m -1,5 C 1,6 C 4,8 km/h (1 Bft) 99,10 %
23.11.2015 17:45 1,6 C 80 % 1024,8 hPa 0,0 l/m 3,6 km/h (1 Bft) W 264 0 min 0,000 mm 0,0 UV-I 0 W/m -1,5 C 1,6 C 6,4 km/h (2 Bft) 100,00 %
23.11.2015 17:50 1,6 C 81 % 1024,8 hPa 0,0 l/m 3,7 km/h (1 Bft) W-SW 254 0 min 0,000 mm 0,0 UV-I 0 W/m -1,3 C 1,6 C 4,8 km/h (1 Bft) 99,12 %
23.11.2015 17:55 1,5 C 81 % 1024,8 hPa 0,0 l/m 4,5 km/h (1 Bft) W 259 0 min 0,000 mm 0,0 UV-I 0 W/m -1,4 C 1,5 C 6,4 km/h (2 Bft) 100,00 %
23.11.2015 18:00 1,5 C 81 % 1024,9 hPa 0,0 l/m 4,6 km/h (1 Bft) W 264 0 min 0,000 mm 0,0 UV-I 0 W/m -1,4 C 1,5 C 6,4 km/h (2 Bft) 99,13 %
23.11.2015 18:05 1,5 C 81 % 1024,9 hPa 0,0 l/m 4,5 km/h (1 Bft) W-SW 250 0 min 0,000 mm 0,0 UV-I 0 W/m -1,4 C 1,5 C 6,4 km/h (2 Bft) 97,37 %
23.11.2015 18:10 1,6 C 80 % 1025,1 hPa 0,0 l/m 5,0 km/h (1 Bft) W-SW 252 0 min 0,000 mm 0,0 UV-I 0 W/m -1,5 C 1,6 C 11,3 km/h (2 Bft) 99,17 %
23.11.2015 18:15 1,5 C 81 % 1025,1 hPa 0,0 l/m 3,2 km/h (1 Bft) SW 231 0 min 0,000 mm 0,0 UV-I 0 W/m -1,4 C 1,5 C 6,4 km/h (2 Bft) 100,00 %
23.11.2015 18:20 1,5 C 81 % 1025,2 hPa 0,0 l/m 4,5 km/h (1 Bft) W-SW 237 0 min 0,000 mm 0,0 UV-I 0 W/m -1,4 C 1,5 C 6,4 km/h (2 Bft) 99,19 %
23.11.2015 18:25 1,6 C 80 % 1025,2 hPa 0,0 l/m 4,9 km/h (1 Bft) SW 232 0 min 0,000 mm 0,0 UV-I 0 W/m -1,5 C 1,6 C 8,0 km/h (2 Bft) 100,00 %
23.11.2015 18:30 1,7 C 80 % 1025,3 hPa 0,0 l/m 5,5 km/h (1 Bft) SW 233 0 min 0,000 mm 0,0 UV-I 0 W/m -1,4 C 1,7 C 9,7 km/h (2 Bft) 99,13 %
23.11.2015 18:35 1,6 C 82 % 1025,3 hPa 0,0 l/m 4,1 km/h (1 Bft) SW 234 0 min 0,000 mm 0,0 UV-I 0 W/m -1,1 C 1,6 C 6,4 km/h (2 Bft) 100,00 %
23.11.2015 18:40 1,5 C 82 % 1025,4 hPa 0,0 l/m 6,0 km/h (2 Bft) SW 234 0 min 0,000 mm 0,0 UV-I 0 W/m -1,2 C 1,5 C 9,7 km/h (2 Bft) 100,00 %
23.11.2015 18:45 1,4 C 83 % 1025,4 hPa 0,0 l/m 6,6 km/h (2 Bft) SW 227 0 min 0,000 mm 0,0 UV-I 0 W/m -1,2 C 1,2 C 11,3 km/h (2 Bft) 98,37 %
23.11.2015 18:55 1,6 C 81 % 1025,3 hPa 0,0 l/m 6,4 km/h (2 Bft) W-SW 238 0 min 0,000 mm 0,0 UV-I 0 W/m -1,3 C 1,6 C 12,9 km/h (3 Bft) 97,35 %
23.11.2015 19:00 1,6 C 81 % 1025,3 hPa 0,0 l/m 5,2 km/h (1 Bft) W-SW 242 0 min 0,000 mm 0,0 UV-I 0 W/m -1,3 C 1,6 C 8,0 km/h (2 Bft) 97,62 %
23.11.2015 19:05 1,6 C 81 % 1025,4 hPa 0,0 l/m 4,5 km/h (1 Bft) SW 227 0 min 0,000 mm 0,0 UV-I 0 W/m -1,3 C 1,6 C 8,0 km/h (2 Bft) 96,33 %
23.11.2015 19:10 1,6 C 81 % 1025,5 hPa 0,0 l/m 3,7 km/h (1 Bft) W-SW 237 0 min 0,000 mm 0,0 UV-I 0 W/m -1,3 C 1,6 C 6,4 km/h (2 Bft) 96,67 %
23.11.2015 19:15 1,6 C 81 % 1025,6 hPa 0,0 l/m 3,9 km/h (1 Bft) SW 227 0 min 0,000 mm 0,0 UV-I 0 W/m -1,3 C 1,6 C 6,4 km/h (2 Bft) 96,61 %
23.11.2015 19:20 1,6 C 81 % 1025,6 hPa 0,0 l/m 3,0 km/h (1 Bft) SW 235 0 min 0,000 mm 0,0 UV-I 0 W/m -1,3 C 1,6 C 6,4 km/h (2 Bft) 98,26 %
23.11.2015 19:25 1,6 C 81 % 1025,7 hPa 0,0 l/m 3,2 km/h (1 Bft) S-SW 209 0 min 0,000 mm 0,0 UV-I 0 W/m -1,3 C 1,6 C 4,8 km/h (1 Bft) 100,00 %
23.11.2015 19:30 1,5 C 83 % 1025,7 hPa 0,0 l/m 4,4 km/h (1 Bft) S-SW 199 0 min 0,000 mm 0,0 UV-I 0 W/m -1,1 C 1,5 C 6,4 km/h (2 Bft) 98,35 %
23.11.2015 19:35 1,4 C 82 % 1025,7 hPa 0,0 l/m 6,4 km/h (2 Bft) S-SW 202 0 min 0,000 mm 0,0 UV-I 0 W/m -1,3 C 1,4 C 9,7 km/h (2 Bft) 97,37 %
23.11.2015 19:40 1,5 C 81 % 1025,7 hPa 0,0 l/m 4,8 km/h (1 Bft) SW 225 0 min 0,000 mm 0,0 UV-I 0 W/m -1,4 C 1,5 C 8,0 km/h (2 Bft) 97,37 %
23.11.2015 19:45 1,5 C 82 % 1025,7 hPa 0,0 l/m 4,8 km/h (1 Bft) SW 225 0 min 0,000 mm 0,0 UV-I 0 W/m -1,2 C 1,5 C 8,0 km/h (2 Bft) 99,12 %
23.11.2015 19:50 1,4 C 83 % 1025,9 hPa 0,0 l/m 4,8 km/h (1 Bft) SW 225 0 min 0,000 mm 0,0 UV-I 0 W/m -1,2 C 1,4 C 8,0 km/h (2 Bft) 97,37 %
23.11.2015 19:55 1,4 C 83 % 1025,9 hPa 0,0 l/m 6,3 km/h (2 Bft) SW 221 0 min 0,000 mm 0,0 UV-I 0 W/m -1,2 C 1,4 C 8,0 km/h (2 Bft) 99,30 %
23.11.2015 20:00 1,3 C 83 % 1026,0 hPa 0,0 l/m 4,3 km/h (1 Bft) SW 229 0 min 0,000 mm 0,0 UV-I 0 W/m -1,3 C 1,3 C 6,4 km/h (2 Bft) 98,35 %
23.11.2015 20:05 1,2 C 83 % 1026,1 hPa 0,0 l/m 3,6 km/h (1 Bft) SW 223 0 min 0,000 mm 0,0 UV-I 0 W/m -1,4 C 1,2 C 6,4 km/h (2 Bft) 100,00 %
23.11.2015 20:10 1,2 C 83 % 1026,0 hPa 0,0 l/m 4,3 km/h (1 Bft) SW 227 0 min 0,000 mm 0,0 UV-I 0 W/m -1,4 C 1,2 C 6,4 km/h (2 Bft) 99,19 %
23.11.2015 20:15 1,3 C 83 % 1026,0 hPa 0,0 l/m 4,1 km/h (1 Bft) SW 224 0 min 0,000 mm 0,0 UV-I 0 W/m -1,3 C 1,3 C 8,0 km/h (2 Bft) 98,17 %
23.11.2015 20:20 1,2 C 83 % 1026,1 hPa 0,0 l/m 3,9 km/h (1 Bft) S-SW 205 0 min 0,000 mm 0,0 UV-I 0 W/m -1,4 C 1,2 C 6,4 km/h (2 Bft) 100,00 %
23.11.2015 20:25 1,2 C 83 % 1026,1 hPa 0,0 l/m 3,5 km/h (1 Bft) S 169 0 min 0,000 mm 0,0 UV-I 0 W/m -1,4 C 1,2 C 8,0 km/h (2 Bft) 100,00 %
23.11.2015 20:30 1,2 C 83 % 1026,1 hPa 0,0 l/m 1,5 km/h (1 Bft) S 169 0 min 0,000 mm 0,0 UV-I 0 W/m -1,4 C 1,2 C 6,4 km/h (2 Bft) 100,00 %
23.11.2015 20:35 1,1 C 83 % 1026,1 hPa 0,0 l/m 2,4 km/h (1 Bft) S 186 0 min 0,000 mm 0,0 UV-I 0 W/m -1,5 C 1,1 C 3,2 km/h (1 Bft) 99,15 %
23.11.2015 20:40 1,1 C 83 % 1026,1 hPa 0,0 l/m 2,6 km/h (1 Bft) S 186 0 min 0,000 mm 0,0 UV-I 0 W/m -1,5 C 1,1 C 4,8 km/h (1 Bft) 100,00 %
23.11.2015 20:45 0,9 C 84 % 1026,2 hPa 0,0 l/m 1,1 km/h (1 Bft) S 186 0 min 0,000 mm 0,0 UV-I 0 W/m -1,5 C 0,9 C 3,2 km/h (1 Bft) 100,00 %
23.11.2015 20:50 1,0 C 84 % 1026,2 hPa 0,0 l/m 0,5 km/h (0 Bft) S 186 0 min 0,000 mm 0,0 UV-I 0 W/m -1,4 C 1,0 C 3,2 km/h (1 Bft) 98,15 %
23.11.2015 20:55 1,1 C 84 % 1026,3 hPa 0,0 l/m 1,4 km/h (1 Bft) S 186 0 min 0,000 mm 0,0 UV-I 0 W/m -1,3 C 1,1 C 3,2 km/h (1 Bft) 97,52 %
23.11.2015 21:00 1,1 C 84 % 1026,3 hPa 0,0 l/m 2,1 km/h (1 Bft) S 186 0 min 0,000 mm 0,0 UV-I 0 W/m -1,3 C 1,1 C 3,2 km/h (1 Bft) 97,32 %
23.11.2015 21:05 1,0 C 85 % 1026,4 hPa 0,0 l/m 0,9 km/h (0 Bft) S 186 0 min 0,000 mm 0,0 UV-I 0 W/m -1,2 C 1,0 C 1,6 km/h (1 Bft) 96,75 %
23.11.2015 21:10 0,8 C 85 % 1026,3 hPa 0,0 l/m 0,3 km/h (0 Bft) S 186 0 min 0,000 mm 0,0 UV-I 0 W/m -1,4 C 0,8 C 1,6 km/h (1 Bft) 97,32 %
23.11.2015 21:15 0,8 C 86 % 1026,4 hPa 0,0 l/m 0,0 km/h (0 Bft) S 186 0 min 0,000 mm 0,0 UV-I 0 W/m -1,3 C 0,8 C 1,6 km/h (1 Bft) 97,56 %
23.11.2015 21:20 0,7 C 86 % 1026,4 hPa 0,0 l/m 0,0 km/h (0 Bft) S 186 0 min 0,000 mm 0,0 UV-I 0 W/m -1,4 C 0,7 C 0,0 km/h (0 Bft) 96,91 %
23.11.2015 21:25 0,7 C 87 % 1026,4 hPa 0,0 l/m 0,3 km/h (0 Bft) S 186 0 min 0,000 mm 0,0 UV-I 0 W/m -1,2 C 0,7 C 3,2 km/h (1 Bft) 96,99 %
23.11.2015 21:30 0,8 C 86 % 1026,4 hPa 0,0 l/m 0,4 km/h (0 Bft) S 186 0 min 0,000 mm 0,0 UV-I 0 W/m -1,3 C 0,8 C 1,6 km/h (1 Bft) 100,00 %
23.11.2015 21:35 0,7 C 86 % 1026,4 hPa 0,0 l/m 0,3 km/h (0 Bft) S 186 0 min 0,000 mm 0,0 UV-I 0 W/m -1,4 C 0,7 C 1,6 km/h (1 Bft) 97,64 %
23.11.2015 21:40 0,6 C 88 % 1026,4 hPa 0,0 l/m 0,2 km/h (0 Bft) S 186 0 min 0,000 mm 0,0 UV-I 0 W/m -1,2 C 0,6 C 1,6 km/h (1 Bft) 98,21 %
23.11.2015 21:45 0,5 C 88 % 1026,4 hPa 0,0 l/m 0,6 km/h (0 Bft) S-SW 209 0 min 0,000 mm 0,0 UV-I 0 W/m -1,3 C 0,5 C 1,6 km/h (1 Bft) 99,12 %
23.11.2015 21:50 0,5 C 87 % 1026,4 hPa 0,0 l/m 0,0 km/h (0 Bft) S-SW 209 0 min 0,000 mm 0,0 UV-I 0 W/m -1,4 C 0,5 C 0,0 km/h (0 Bft) 99,11 %
23.11.2015 21:55 0,5 C 88 % 1026,4 hPa 0,0 l/m 0,0 km/h (0 Bft) S-SW 209 0 min 0,000 mm 0,0 UV-I 0 W/m -1,3 C 0,5 C 0,0 km/h (0 Bft) 100,00 %
23.11.2015 22:00 0,4 C 88 % 1026,4 hPa 0,0 l/m 0,1 km/h (0 Bft) S-SW 209 0 min 0,000 mm 0,0 UV-I 0 W/m -1,3 C 0,4 C 1,6 km/h (1 Bft) 100,00 %
23.11.2015 22:05 0,4 C 88 % 1026,4 hPa 0,0 l/m 0,2 km/h (0 Bft) S-SW 209 0 min 0,000 mm 0,0 UV-I 0 W/m -1,3 C 0,4 C 1,6 km/h (1 Bft) 97,32 %
23.11.2015 22:10 0,3 C 88 % 1026,4 hPa 0,0 l/m 1,2 km/h (1 Bft) S-SW 209 0 min 0,000 mm 0,0 UV-I 0 W/m -1,4 C 0,3 C 1,6 km/h (1 Bft) 100,00 %
23.11.2015 22:15 0,3 C 89 % 1026,3 hPa 0,0 l/m 0,8 km/h (0 Bft) S-SW 209 0 min 0,000 mm 0,0 UV-I 0 W/m -1,3 C 0,3 C 1,6 km/h (1 Bft) 98,35 %
23.11.2015 22:20 0,3 C 88 % 1026,4 hPa 0,0 l/m 0,1 km/h (0 Bft) S-SW 209 0 min 0,000 mm 0,0 UV-I 0 W/m -1,4 C 0,3 C 1,6 km/h (1 Bft) 99,17 %
23.11.2015 22:25 0,3 C 89 % 1026,3 hPa 0,0 l/m 0,1 km/h (0 Bft) S-SW 209 0 min 0,000 mm 0,0 UV-I 0 W/m -1,3 C 0,3 C 1,6 km/h (1 Bft) 100,00 %
23.11.2015 22:30 0,3 C 89 % 1026,3 hPa 0,0 l/m 0,7 km/h (0 Bft) S-SW 209 0 min 0,000 mm 0,0 UV-I 0 W/m -1,3 C 0,3 C 3,2 km/h (1 Bft) 100,00 %
23.11.2015 22:35 0,2 C 90 % 1026,3 hPa 0,0 l/m 0,6 km/h (0 Bft) S-SW 209 0 min 0,000 mm 0,0 UV-I 0 W/m -1,2 C 0,2 C 1,6 km/h (1 Bft) 99,17 %
23.11.2015 22:40 0,1 C 90 % 1026,3 hPa 0,0 l/m 1,2 km/h (1 Bft) S-SW 209 0 min 0,000 mm 0,0 UV-I 0 W/m -1,3 C 0,1 C 1,6 km/h (1 Bft) 98,31 %
23.11.2015 22:45 0,0 C 90 % 1026,3 hPa 0,0 l/m 0,9 km/h (0 Bft) S-SW 209 0 min 0,000 mm 0,0 UV-I 0 W/m -1,4 C 0,0 C 1,6 km/h (1 Bft) 100,00 %
23.11.2015 22:50 -0,1 C 90 % 1026,4 hPa 0,0 l/m 0,3 km/h (0 Bft) S-SW 209 0 min 0,000 mm 0,0 UV-I 0 W/m -1,5 C -0,1 C 1,6 km/h (1 Bft) 98,20 %
23.11.2015 22:55 0,0 C 91 % 1026,3 hPa 0,0 l/m 1,8 km/h (1 Bft) S-SW 209 0 min 0,000 mm 0,0 UV-I 0 W/m -1,3 C 0,0 C 3,2 km/h (1 Bft) 96,52 %
23.11.2015 23:00 -0,1 C 91 % 1026,4 hPa 0,0 l/m 0,2 km/h (0 Bft) S-SW 209 0 min 0,000 mm 0,0 UV-I 0 W/m -1,4 C -0,1 C 1,6 km/h (1 Bft) 95,04 %
23.11.2015 23:05 -0,1 C 91 % 1026,4 hPa 0,0 l/m 0,2 km/h (0 Bft) S-SW 209 0 min 0,000 mm 0,0 UV-I 0 W/m -1,4 C -0,1 C 1,6 km/h (1 Bft) 95,93 %
23.11.2015 23:10 -0,1 C 91 % 1026,3 hPa 0,0 l/m 0,4 km/h (0 Bft) S-SW 209 0 min 0,000 mm 0,0 UV-I 0 W/m -1,4 C -0,1 C 1,6 km/h (1 Bft) 97,25 %
23.11.2015 23:15 -0,1 C 91 % 1026,3 hPa 0,0 l/m 0,3 km/h (0 Bft) S-SW 209 0 min 0,000 mm 0,0 UV-I 0 W/m -1,4 C -0,1 C 1,6 km/h (1 Bft) 97,44 %
23.11.2015 23:20 -0,1 C 90 % 1026,4 hPa 0,0 l/m 0,0 km/h (0 Bft) S-SW 209 0 min 0,000 mm 0,0 UV-I 0 W/m -1,5 C -0,1 C 1,6 km/h (1 Bft) 97,39 %
23.11.2015 23:25 0,0 C 90 % 1026,4 hPa 0,0 l/m 0,1 km/h (0 Bft) S-SW 209 0 min 0,000 mm 0,0 UV-I 0 W/m -1,4 C 0,0 C 1,6 km/h (1 Bft) 97,58 %
23.11.2015 23:30 -0,1 C 91 % 1026,4 hPa 0,0 l/m 0,1 km/h (0 Bft) S-SW 209 0 min 0,000 mm 0,0 UV-I 0 W/m -1,4 C -0,1 C 1,6 km/h (1 Bft) 98,33 %
23.11.2015 23:35 0,1 C 90 % 1026,4 hPa 0,0 l/m 0,0 km/h (0 Bft) S-SW 209 0 min 0,000 mm 0,0 UV-I 0 W/m -1,3 C 0,1 C 0,0 km/h (0 Bft) 97,25 %
23.11.2015 23:40 -0,1 C 90 % 1026,5 hPa 0,0 l/m 0,0 km/h (0 Bft) S-SW 209 0 min 0,000 mm 0,0 UV-I 0 W/m -1,5 C -0,1 C 0,0 km/h (0 Bft) 98,37 %
23.11.2015 23:45 0,0 C 91 % 1026,5 hPa 0,0 l/m 0,0 km/h (0 Bft) S-SW 209 0 min 0,000 mm 0,0 UV-I 0 W/m -1,3 C 0,0 C 0,0 km/h (0 Bft) 98,17 %
23.11.2015 23:50 -0,1 C 92 % 1026,5 hPa 0,0 l/m 0,0 km/h (0 Bft) S-SW 209 0 min 0,000 mm 0,0 UV-I 0 W/m -1,2 C -0,1 C 0,0 km/h (0 Bft) 100,00 %
23.11.2015 23:55 -0,2 C 91 % 1026,4 hPa 0,0 l/m 0,0 km/h (0 Bft) S-SW 209 0 min 0,000 mm 0,0 UV-I 0 W/m -1,5 C -0,2 C 0,0 km/h (0 Bft) 100,00 %
_ Min-Zeit 01:50 13:40 00:15 - 21:15 - - - - - - 02:45 09:50 21:20 17:05
Minimum _ -0,4 C 71 % 1014,3 hPa - 0,0 km/h (0 Bft) - - - - - - -2,7 C -7,6 C 0,0 km/h (0 Bft) 94,78 %
_ Max-Zeit 13:40 23:50 23:40 00:00 13:50 - - 10:40 14:00 12:15 13:40 11:40 16:20 13:50 00:15
Maximum _ 4,2 C 92 % 1026,5 hPa 0,0 l/m 22,1 km/h
SO (4 Bft)
- - 5 min 0,152 mm 0,7 UV-I 428 W/m -0,0 C 2,4 C 38,6 km/h
S (5 Bft)
100,00 %
Durchschnitt _ 1,1 C 82 % 1021,1 hPa #0,0 l/m 8,3 km/h (2 Bft) SW - #1:30 h #0,610 mm 0,4 UV-I 113 W/m -1,5 C -1,3 C 14,2 km/h (3 Bft) 98,48 %